Regional Weather Roundup
Issued by NWS

Home | Current Version | Previous Version | Graphics & Text | Print | Product List | Glossary On
Versions: 1 2 3 4 5 6 7 8 9 10 11 12 13 14 15 16 17 18 19 20 21 22 23 24 25 26 27 28 29 30 31 32 33 34 35 36 37 38 39 40 41 42 43 44 45 46 47 48 49 50
000
ASUS44 KMEG 280300
RWRTN
TENNESSEE HOURLY STATE WEATHER ROUNDUP
NATIONAL WEATHER SERVICE MEMPHIS TN
1000 PM CDT FRI MAY 27 2016

TNZ002-004-019-021-049-052-054-088>092-280400-
WEST TENNESSEE

CITY           SKY/WX    TMP DP  RH WIND       PRES   REMARKS
MEMPHIS INTL   CLOUDY    70  65  84 S8        29.90R
NWS MEMPHIS      N/A     70 N/A N/A MISG        N/A
JACKSON        CLOUDY    77  63  61 S9        29.91S
DYERSBURG      PTCLDY    75  64  69 SW5       29.89R
UNION CITY     CLEAR     75  66  73 S15       29.88R
PARIS          CLEAR     73  64  73 S10       29.92F
LEXINGTON      CLEAR     75  64  69 S6        29.95S
$$

TNZ008-025-027-028-033-062-065-066-280400-
NORTH MIDDLE TENNESSEE

CITY           SKY/WX    TMP DP  RH WIND       PRES   REMARKS
NASHVILLE      CLOUDY    78  64  61 S9        30.01R
CLARKSVILLE    CLOUDY    77  63  61 S6        29.96R
COOKEVILLE     CLEAR     73  70  88 S3        30.05R
CROSSVILLE     PTCLDY    68  65  90 S5        30.11R FOG
$$

TNZ061-075-076-078-094-096-097-280400-
SOUTH MIDDLE TENNESSEE

CITY           SKY/WX    TMP DP  RH WIND       PRES   REMARKS
TULLAHOMA      MOCLDY    68  68 100 S3        30.07S
WINCHESTER     CLOUDY    72  68  88 SE3       30.06S
MCMINNVILLE    PTCLDY    73  70  88 SW9       30.07R
COLUMBIA       CLEAR     75  75 100 S5        29.99R
SHELBYVILLE    CLOUDY    72  66  83 S12       30.06R
$$

TNZ017-018-042-046-047-280400-
NORTHEAST TENNESSEE

CITY           SKY/WX    TMP DP  RH WIND       PRES   REMARKS
TRI CITIES     PTCLDY    66  65  96 CALM      30.12S FOG
$$

TNZ012-013-036-069-073-074-280400-
CENTRAL EAST TENNESSEE

CITY           SKY/WX    TMP DP  RH WIND       PRES   REMARKS
KNOXVILLE      PTCLDY    69  67  93 CALM      30.08R
OAK RIDGE      CLOUDY    71  67  87 CALM      30.09R
GATLINBURG     CLEAR     68  64  88 CALM      30.08R
$$

TNZ083-085-099-280400-
SOUTHEAST TENNESSEE

CITY           SKY/WX    TMP DP  RH WIND       PRES   REMARKS
CHATTANOOGA    MOCLDY    79  60  52 SE7       30.07R
$$

SKY/WX REPORTED AS FAIR MEANS FEW OR NO CLOUDS BELOW
12 THOUSAND FEET.





USA.gov is the U.S. government's official web portal to all federal, state and local government web resources and services.